Showing default

HULIANWANG DIGUI-31, 64284

Orbit data source: Space-Track

HULIANWANG DIGUI-31, 64284 is a payload satellite owned by Zhongguo Xingwang (CN) in LEO that was launched on Thu, 05 Jun 2025 UTC via a CHANG ZHENG 6A launch vehicle from the Taiyaun Space Center, China (TSC). Payload-class satellites include a variety of spacecraft equipped with specific instruments for various scientific and technological missions. These include communications satellites like Starlink; space stations such as the ISS; scientific satellites like the Hubble; Earth observation satellites from companies like Planet Labs, Umbra, and HawkEye 360; GPS; miniature CubeSats for education and research; and military/defense satellites.

Loading next visibility...
Identifier
64284, 2025-121B
Orbit
LEO
Last TLE update
17 hours ago
Origin
Flag of CNZXW (CN / PRC)
Manufacturer
CAST?
Mission
Operational spacecraft
Bus & Motor
Unknown
Mass
~800 kg wet, ~800 kg dry
Launch date (UTC)
2025-06-05 (2 weeks ago)
Launch vehicle
CHANG ZHENG 6A
Launch site
Taiyaun Space Center, China (TSC)
Object type
Payload
Rocket body
Debris
Shape & HBR
Unknown
Radar Cross Section
Large (>1 m²)

Expand to show TLE details & history

TLE from 17 hours ago
0 HULIANWANG DIGUI-31
1 64284U 25121B   25169.55849073 -.00000096  00000-0 -13081-3 0  9992
2 64284  86.5015 138.0170 0009604 180.7329 179.3818 13.68839788  1740
Epoch: 2025-06-18T13:24Z
TLE epoch observation values (Epoch: 2025-06-18T13:24:13.599Z)
Latitude
0.00001°
Longitude
29.92154°
Altitude
1,013.789 km
Speed
7.341 km/s
True Right ascension
09h 12m 04s
True Declination
0° 00' 00"
Sunlit
Object was in daylight at epoch
Visualization orbit readout
Latitude
-33.46155°
Longitude
27.35416°
Altitude
1,022.396 km
Speed
7.336 km/s
Apparent Right ascension
07h 32m 20s
Apparent Declination
-39° 04' 56"
Sunlit
Object is in daylight
Visualization observer readout
Local Sidereal Time
17:37:35
Azimuth
262.875° W
Elevation
-67.945°
Doppler factor
1
Orbital elements
Apogee altitude
1,007.882 km
Perigee altitude
993.708 km
Semi-major axis
7,378.932 km
Eccentricity
0.00096
Inclination
86.5015°
RAAN
138.017°
Arg. of periapsis
180.7329°
True anomaly
Unknown
Mean anomaly
179.3818°
Eccentric anomaly
Unknown
Mean motion
3.42415 °/min
Orbital period
105.14 mins
BSTAR
-0.00013081
Loading maneuver chart data...
Loading SW <> Apogee altitude chart data...
Loading historical data...
Loading historical data...
Loading historical data...
Loading historical data...
Loading historical data...
Loading historical data...
Loading historical data...

HULIANWANG DIGUI-31 Visibility forecast

Observer location: undefined°, undefined°

Span
Click to sort rows by Start time (UTC) header in descending order
Start Az.
Max El. time (UTC)
Max El. Az.
Max El.
End time (UTC)
End Az.
11 mins2025-06-19 09:17:03.465Z13.231° NNE2025-06-19 09:23:03.465Z87.248° E32.427°2025-06-19 09:28:03.465Z147.099° SSE
9 mins2025-06-19 11:04:03.465Z328.566° NNW2025-06-19 11:08:03.465Z278.65° WNW26.475°2025-06-19 11:13:03.465Z222.078° SW
7 mins2025-06-19 21:08:03.465Z112.914° SE2025-06-19 21:11:03.465Z77.829° E20.343°2025-06-19 21:15:03.465Z35.291° NE
11 mins2025-06-19 22:51:03.465Z201.982° SSW2025-06-19 22:56:03.465Z279.003° WNW39.469°2025-06-19 23:02:03.465Z353.285° N
|